Regional Weather Roundup
Issued by NWS

Home | Current Version | Previous Version | Text Only | Print | Product List | Glossary On
Versions: 1 2 3 4 5 6 7 8 9 10 11 12 13 14 15 16 17 18 19 20 21 22 23 24 25 26 27 28 29 30 31 32 33 34 35 36 37 38 39 40 41 42 43 44 45 46 47 48 49 50
000
ASUS43 KBIS 281110
RWRND

NORTH DAKOTA REGIONAL WEATHER ROUNDUP
NATIONAL WEATHER SERVICE BISMARCK ND
600 AM CDT THU AUG 28 2014

NOTE: "FAIR" INDICATES FEW OR NO CLOUDS BELOW 12,000 FEET WITH NO
SIGNIFICANT WEATHER AND/OR OBSTRUCTIONS TO VISIBILITY.


NDZ001>003-009>011-017-281200-
NORTHWEST NORTH DAKOTA

CITY           SKY/WX    TMP DP  RH WIND       PRES   REMARKS
WILLISTON      CLEAR     59  57  93 SW5       29.90S
MINOT          CLOUDY    63  61  93 S9        29.91S
MINOT AFB      MOCLDY    62  62 100 S7        29.90F
$$

NDZ018>021-031>035-040>046-281200-
SOUTHWEST NORTH DAKOTA

CITY           SKY/WX    TMP DP  RH WIND       PRES   REMARKS
BISMARCK       MOCLDY    60  58  92 CALM      29.95F
DICKINSON      PTCLDY    55  53  93 SE8       29.94F
GARRISON         N/A     62  62 100 S5        29.94F
HETTINGER ARPT FOG       58  57  97 W3        29.98F VSB 1/4
$$

NDZ004>008-012>016-024-026-027-054-281200-
NORTHEAST NORTH DAKOTA

CITY           SKY/WX    TMP DP  RH WIND       PRES   REMARKS
GRAND FORKS    MOCLDY    60  58  92 SE8       29.98F
GRND FRKS AFB  PTCLDY    60  60 100 S6        29.98F
DEVILS LAKE    CLEAR     61  55  82 SE5       29.94F
$$

NDZ022-023-025-028>030-036>039-047>053-281200-
SOUTHEAST NORTH DAKOTA

CITY           SKY/WX    TMP DP  RH WIND       PRES   REMARKS
FARGO          CLOUDY    66  59  78 SE9       30.00S
JAMESTOWN      CLOUDY    64  61  90 S7        29.96F
$$



USA.gov is the U.S. government's official web portal to all federal, state and local government web resources and services.